Chester, MD

10:17 AM EDT on July 24, 2016 (GMT -0400)
Stevensville

Weather History for KW29 - December, 2011

Change the Weather History Date:

Wednesday, December 28, 2011

  Actual Average (KESN) Record (KESN)
Temperature  
Mean Temperature 40 °F -  
Max Temperature 48 °F 49 °F 68 °F (1971)
Min Temperature 33 °F 32 °F 13 °F (1950)
Degree Days  
Heating Degree Days 24    
Moisture  
Dew Point 28 °F    
Average Humidity 59    
Maximum Humidity 100    
Minimum Humidity 42    
Precipitation  
Precipitation 0.00 in - - ()
Sea Level Pressure  
Sea Level Pressure 29.75 in    
Wind  
Wind Speed 12 mph (WNW)    
Max Wind Speed 23 mph    
Max Gust Speed 34 mph    
Visibility 10 miles    
Events      
Averages and records for this station are not official NWS values.
T = Trace of Precipitation, MM = Missing Value Source: NWS Daily Summary

Daily Weather History Graph

Daily Weather History Graph

Search for Another Location

Airport or City:

Trip Planner

Search our weather history database for the weather conditions in past years. The results will help you decide how hot, cold, wet, or windy it might be!

Date:

Astronomy

Dec. 28, 2011 Rise Set
Actual Time 7:23 AM EST 4:50 PM EST
Civil Twilight 6:53 AM EST 5:20 PM EST
Nautical Twilight 6:19 AM EST 5:53 PM EST
Astronomical Twilight 5:47 AM EST 6:26 PM EST
Moon 9:50 AM EST (12/28) 9:22 PM EST (12/28)
Length of Visible Light 10h 27m
Length of Day
9h 27m
Waxing Crescent, 18% of the Moon is Illuminated
Dec 28
Waxing Crescent
Jan 1
First Quarter
Jan 9
Full
Jan 16
Last Quarter
Jan 23
New

Hourly Weather History & Observations

Time (EST) Temp. Windchill Dew Point Humidity Pressure Visibility Wind Dir Wind Speed Gust Speed Precip Events Conditions
12:16 AM 44.6 °F 39.7 °F 44.6 °F 100% 29.50 in 10.0 mi West 9.2 mph - N/A   Overcast
12:35 AM 44.6 °F 39.7 °F 44.6 °F 100% 29.50 in 10.0 mi West 9.2 mph 16.1 mph N/A   Overcast
12:55 AM 44.6 °F 40.7 °F 42.8 °F 93% 29.50 in 10.0 mi West 6.9 mph 16.1 mph N/A   Mostly Cloudy
1:14 AM 44.6 °F 39.7 °F 41.0 °F 87% 29.50 in 10.0 mi WNW 9.2 mph 16.1 mph N/A   Clear
1:33 AM 44.6 °F 38.8 °F 37.4 °F 76% 29.51 in 10.0 mi WNW 11.5 mph 20.7 mph N/A   Clear
1:52 AM 44.6 °F 37.8 °F 35.6 °F 71% 29.52 in 10.0 mi WNW 15.0 mph 25.3 mph N/A   Clear
2:50 AM 42.8 °F 37.5 °F 32.0 °F 66% 29.55 in 10.0 mi West 9.2 mph 19.6 mph N/A   Clear
3:10 AM 42.8 °F 36.2 °F 32.0 °F 66% 29.56 in 10.0 mi West 12.7 mph 18.4 mph N/A   Clear
3:29 AM 42.8 °F 37.5 °F 32.0 °F 66% 29.57 in 10.0 mi West 9.2 mph - N/A   Clear
3:48 AM 42.8 °F 37.5 °F 32.0 °F 66% 29.58 in 10.0 mi West 9.2 mph 17.3 mph N/A   Clear
4:08 AM 42.8 °F 36.6 °F 32.0 °F 66% 29.58 in 10.0 mi West 11.5 mph - N/A   Scattered Clouds
4:27 AM 42.8 °F 37.5 °F 32.0 °F 66% 29.60 in 10.0 mi West 9.2 mph 16.1 mph N/A   Clear
4:46 AM 42.8 °F 36.6 °F 32.0 °F 66% 29.60 in 10.0 mi West 11.5 mph 17.3 mph N/A   Clear
5:06 AM 42.8 °F 37.0 °F 33.8 °F 70% 29.61 in 10.0 mi West 10.4 mph - N/A   Clear
5:25 AM 42.8 °F 37.0 °F 32.0 °F 66% 29.61 in 10.0 mi West 10.4 mph - N/A   Scattered Clouds
6:04 AM 42.8 °F 36.2 °F 32.0 °F 66% 29.63 in 10.0 mi West 12.7 mph - N/A   Scattered Clouds
6:23 AM 42.8 °F 36.2 °F 32.0 °F 66% 29.63 in 10.0 mi West 12.7 mph 18.4 mph N/A   Clear
6:42 AM 42.8 °F 36.6 °F 32.0 °F 66% 29.64 in 10.0 mi West 11.5 mph 18.4 mph N/A   Clear
7:01 AM 42.8 °F 38.6 °F 32.0 °F 66% 29.65 in 10.0 mi West 6.9 mph 17.3 mph N/A   Clear
7:21 AM 42.8 °F 36.2 °F 32.0 °F 66% 29.66 in 10.0 mi West 12.7 mph 17.3 mph N/A   Clear
7:40 AM 42.8 °F 36.6 °F 33.8 °F 70% 29.66 in 10.0 mi West 11.5 mph 16.1 mph N/A   Clear
8:00 AM 42.8 °F 37.5 °F 33.8 °F 70% 29.67 in 10.0 mi West 9.2 mph - N/A   Clear
8:19 AM 42.8 °F 37.0 °F 33.8 °F 70% 29.68 in 10.0 mi West 10.4 mph - N/A   Clear
8:38 AM 42.8 °F 36.2 °F 33.8 °F 70% 29.69 in 10.0 mi West 12.7 mph 18.4 mph N/A   Clear
8:57 AM 44.6 °F 38.4 °F 32.0 °F 61% 29.70 in 10.0 mi West 12.7 mph 19.6 mph N/A   Clear
9:17 AM 44.6 °F 37.8 °F 32.0 °F 61% 29.71 in 10.0 mi WNW 15.0 mph 21.9 mph N/A   Clear
9:36 AM 44.6 °F 37.8 °F 32.0 °F 61% 29.72 in 10.0 mi WNW 15.0 mph 27.6 mph N/A   Clear
9:55 AM 46.4 °F 40.1 °F 30.2 °F 53% 29.74 in 10.0 mi WNW 15.0 mph 28.8 mph N/A   Scattered Clouds
10:53 AM 46.4 °F 40.1 °F 30.2 °F 53% 29.75 in 10.0 mi WNW 15.0 mph 21.9 mph N/A   Scattered Clouds
11:12 AM 46.4 °F 39.8 °F 28.4 °F 50% 29.74 in 10.0 mi WNW 16.1 mph 26.5 mph N/A   Scattered Clouds
11:32 AM 48.2 °F - 30.2 °F 50% 29.74 in 10.0 mi NW 23.0 mph 31.1 mph N/A   Mostly Cloudy
11:51 AM 44.6 °F 37.8 °F 26.6 °F 49% 29.75 in 10.0 mi WNW 15.0 mph 25.3 mph N/A   Mostly Cloudy
12:10 PM 46.4 °F 39.0 °F 28.4 °F 50% 29.74 in 10.0 mi West 19.6 mph 26.5 mph N/A   Mostly Cloudy
12:29 PM 46.4 °F 39.2 °F 28.4 °F 50% 29.75 in 10.0 mi WNW 18.4 mph 29.9 mph N/A   Mostly Cloudy
12:49 PM 44.6 °F 36.9 °F 28.4 °F 53% 29.76 in 10.0 mi WNW 18.4 mph 34.5 mph N/A   Scattered Clouds
1:08 PM 44.6 °F 36.9 °F 28.4 °F 53% 29.76 in 10.0 mi WNW 18.4 mph 27.6 mph N/A   Clear
1:47 PM 42.8 °F 35.1 °F 26.6 °F 53% 29.78 in 10.0 mi WNW 16.1 mph 26.5 mph N/A   Scattered Clouds
2:44 PM 42.8 °F 35.4 °F 23.0 °F 46% 29.81 in 10.0 mi WNW 15.0 mph 26.5 mph N/A   Clear
3:04 PM 42.8 °F 35.1 °F 23.0 °F 46% 29.83 in 10.0 mi WNW 16.1 mph 31.1 mph N/A   Scattered Clouds
3:23 PM 42.8 °F 35.8 °F 21.2 °F 42% 29.84 in 10.0 mi WNW 13.8 mph 28.8 mph N/A   Clear
3:42 PM 41.0 °F 32.8 °F 21.2 °F 45% 29.86 in 10.0 mi WNW 16.1 mph 25.3 mph N/A   Clear
4:01 PM 41.0 °F 34.3 °F 21.2 °F 45% 29.87 in 10.0 mi WNW 11.5 mph 24.2 mph N/A   Clear
4:21 PM 41.0 °F 32.2 °F 21.2 °F 45% 29.88 in 10.0 mi WNW 18.4 mph 24.2 mph N/A   Clear
4:40 PM 41.0 °F 32.8 °F 21.2 °F 45% 29.89 in 10.0 mi WNW 16.1 mph 23.0 mph N/A   Clear
4:59 PM 39.2 °F 31.2 °F 21.2 °F 49% 29.90 in 10.0 mi WNW 13.8 mph 20.7 mph N/A   Clear
5:18 PM 37.4 °F 27.8 °F 21.2 °F 52% 29.91 in 10.0 mi WNW 17.3 mph 31.1 mph N/A   Clear
5:38 PM 37.4 °F 28.5 °F 19.4 °F 48% 29.92 in 10.0 mi WNW 15.0 mph 23.0 mph N/A   Clear
5:57 PM 37.4 °F 29.8 °F 19.4 °F 48% 29.92 in 10.0 mi WNW 11.5 mph 21.9 mph N/A   Clear
6:16 PM 37.4 °F 29.8 °F 19.4 °F 48% 29.93 in 10.0 mi NW 11.5 mph 21.9 mph N/A   Clear
6:35 PM 37.4 °F 29.3 °F 19.4 °F 48% 29.95 in 10.0 mi NW 12.7 mph 19.6 mph N/A   Clear
6:55 PM 35.6 °F 26.2 °F 17.6 °F 48% 29.97 in 10.0 mi WNW 15.0 mph 23.0 mph N/A   Clear
7:14 PM 35.6 °F 26.2 °F 17.6 °F 48% 29.97 in 10.0 mi WNW 15.0 mph 23.0 mph N/A   Clear
7:52 PM 35.6 °F 26.6 °F 17.6 °F 48% 29.98 in 10.0 mi WNW 13.8 mph 24.2 mph N/A   Clear
8:12 PM 35.6 °F 27.5 °F 17.6 °F 48% 29.99 in 10.0 mi WNW 11.5 mph 17.3 mph N/A   Clear
8:31 PM 35.6 °F 27.1 °F 17.6 °F 48% 29.99 in 10.0 mi NW 12.7 mph 16.1 mph N/A   Clear
8:50 PM 35.6 °F 26.6 °F 17.6 °F 48% 29.99 in 10.0 mi NW 13.8 mph 19.6 mph N/A   Clear
9:10 PM 33.8 °F 27.7 °F 17.6 °F 52% 30.00 in 10.0 mi NW 6.9 mph 16.1 mph N/A   Clear
9:29 PM 33.8 °F 25.8 °F 17.6 °F 52% 30.00 in 10.0 mi WNW 10.4 mph 17.3 mph N/A   Clear
9:48 PM 33.8 °F 25.8 °F 19.4 °F 56% 30.01 in 10.0 mi WNW 10.4 mph - N/A   Clear
10:07 PM 33.8 °F 24.3 °F 19.4 °F 56% 30.01 in 10.0 mi WNW 13.8 mph 18.4 mph N/A   Clear
10:27 PM 33.8 °F 24.3 °F 19.4 °F 56% 30.01 in 10.0 mi WNW 13.8 mph 19.6 mph N/A   Clear
10:46 PM 33.8 °F 23.9 °F 19.4 °F 56% 30.00 in 10.0 mi WNW 15.0 mph 20.7 mph N/A   Clear
11:05 PM 33.8 °F 23.9 °F 19.4 °F 56% 30.00 in 10.0 mi WNW 15.0 mph 23.0 mph N/A   Clear
11:24 PM 33.8 °F 23.9 °F 17.6 °F 52% 30.00 in 10.0 mi WNW 15.0 mph 25.3 mph N/A   Clear
11:44 PM 33.8 °F 24.3 °F 19.4 °F 56% 30.00 in 10.0 mi NW 13.8 mph 18.4 mph N/A   Clear